Regional Weather Roundup
Issued by NWS

Home | Current Version | Previous Version | Graphics & Text | Print | Product List | Glossary On
Versions: 1 2 3 4 5 6 7 8 9 10 11 12 13 14 15 16 17 18 19 20 21 22 23 24 25 26 27 28 29 30 31 32 33 34 35 36 37 38 39 40 41 42 43 44 45 46 47 48 49 50
241
ASUS43 KOAX 070102
RWRNE

WEATHER ROUNDUP FOR NEBRASKA
NATIONAL WEATHER SERVICE OMAHA NE
700 PM CST TUE DEC 06 2016

NOTES: SATELLITE DATA IS BEING USED TO AUGMENT CLOUD COVER ABOVE
       12000 FEET.
       "FAIR" INDICATES FEW OR NO CLOUDS BELOW 12,000 FEET WITH NO
       SIGNIFICANT WEATHER AND/OR OBSTRUCTIONS TO VISIBILITY.

  * THESE STATIONS DO NOT REPORT WEATHER SUCH AS RAIN...SNOW OR FOG.

NEZ001>004-019>022-054>056-070200-
NEBRASKA PANHANDLE

CITY           SKY/WX    TMP DP  RH WIND       PRES   REMARKS
SCOTTSBLUFF    CLOUDY    19   3  49 N9        29.98R WCI   8
ALLIANCE       CLOUDY    16   3  56 NW6       29.98R WCI   7
CHADRON        CLOUDY    13   1  59 W8        30.03R WCI   2
SIDNEY         CLOUDY    22   0  38 NE7       29.95R WCI  13
$$

NEZ057>060-069>072-079>082-070200-
SOUTHWEST NEBRASKA

CITY           SKY/WX    TMP DP  RH WIND       PRES   REMARKS
NORTH PLATTE   CLOUDY    23   4  44 NW6       30.03R WCI  16
IMPERIAL       CLOUDY    24   5  44 NE8       30.00R WCI  15
MCCOOK         PTCLDY    23   4  44 N6        30.04R WCI  16
$$

NEZ005>010-023>029-035>040-094-070200-
NORTH CENTRAL NEBRASKA

CITY           SKY/WX    TMP DP  RH WIND       PRES   REMARKS
VALENTINE      CLEAR     12   2  64 W7        30.05R WCI   1
BROKEN BOW     CLEAR     17   4  56 N9        30.03R WCI   6
ORD            CLEAR     18   3  52 NW8       30.06R WCI   8
$$

NEZ041-046>049-061>064-073>077-083>087-070200-
SOUTH CENTRAL NEBRASKA

CITY           SKY/WX    TMP DP  RH WIND       PRES   REMARKS
GRAND ISLAND   CLEAR     21   8  57 NW7       30.07R WCI  12
HASTINGS       CLEAR     24  10  55 CALM      30.07R
KEARNEY *      PTCLDY    21   7  53 N3        30.06R
$$

NEZ011>018-030>034-042>045-070200-
NORTHEAST NEBRASKA

CITY           SKY/WX    TMP DP  RH WIND       PRES   REMARKS
TEKAMAH        CLEAR     25  12  58 W12       30.07R WCI  14
$$

NEZ050>053-065>068-078-088>093-070200-
SOUTHEAST NEBRASKA

CITY           SKY/WX    TMP DP  RH WIND       PRES   REMARKS
LINCOLN        CLEAR     28   9  44 W7        30.09R WCI  21
OMAHA EPPLEY   CLEAR     28  11  48 NW12      30.07R WCI  18
FALLS CITY     CLEAR     28  13  53 W8        30.10R WCI  20
$$

NEZ044-045-051>053-067-070200-
OMAHA AREA

CITY           SKY/WX    TMP DP  RH WIND       PRES   REMARKS
OMAHA EPPLEY   CLEAR     28  11  48 NW12      30.07R WCI  18
OFFUTT AFB     CLEAR     29   8  40 W9        30.06R WCI  21
$$




USA.gov is the U.S. government's official web portal to all federal, state and local government web resources and services.